Regional Weather Roundup
Issued by NWS Goodland, KS

Home | Current Version | Previous Version | Text Only | Print | Product List | Glossary On
Versions: 1 2 3 4 5 6 7 8 9 10 11 12 13 14 15 16 17 18 19 20 21 22 23 24 25 26 27 28 29 30 31 32 33 34 35 36 37 38 39 40 41 42 43 44 45 46 47 48 49 50
000
ASUS43 KGLD 261008
RWRGLD

GOODLAND FORECAST AREA HOURLY WEATHER ROUNDUP
NATIONAL WEATHER SERVICE GOODLAND KS
400 AM MDT TUE MAY 26 2015

...OFFICIAL OBSERVATIONS...

CITY           SKY/WX    TMP DP  RH WIND       PRES   REMARKS
GOODLAND KS    CLEAR     45  44  97 W3        29.94R
HILL CITY KS   PTCLDY    55  51  86 NW9       29.87R
IMPERIAL NEB   MOCLDY    51  48  89 NW6       29.92S
MCCOOK NEB     CLOUDY    52  50  93 NW8       29.88S
AKRON CO       PTCLDY    47  46  97 NW7       29.98R
BURLINGTON CO  CLEAR     46  42  86 W7        29.95S
LIMON CO       MOCLDY    47  43  86 NW9       30.01R
$$

...UNOFFICIAL OBSERVATIONS...

CITY           SKY/WX    TMP DP  RH WIND       PRES   REMARKS
GOVE KS          N/A     54  32  43 MISG        N/A
LENORA KS        N/A     52  32  46 MISG        N/A
SHARON SPRINGS   N/A     48  45  90 MISG        N/A
TRENTON NEB      N/A     53  32  45 W9          N/A
KIT CARSON CO    N/A     47  44  90 MISG        N/A
$$


USA.gov is the U.S. government's official web portal to all federal, state and local government web resources and services.